�N����,����,�~����,�C��,���x,�C��,����,���ϕ���,�ő�u�ԕ���,�ő厞����,���˗�,�I�_���x,�n�����x,�ő啗���N��,DTYPE
"20/11/12","00:10",0.0,5.0,93.4,1026.7,284.5,1.2,2.8,314.8,0.00,4.1,11.4,"00:09:12",1
"20/11/12","00:20",0.0,5.5,93.6,1026.7,293.2,1.8,3.1,288.2,0.00,4.6,11.3,"00:15:44",1
"20/11/12","00:30",0.0,5.9,93.5,1027.0,307.6,2.1,3.9,317.9,0.00,5.0,11.2,"00:21:36",1
"20/11/12","00:40",0.0,5.9,93.5,1027.0,302.7,2.1,3.6,320.4,0.00,5.0,11.5,"00:31:20",1
"20/11/12","00:50",0.0,5.7,93.3,1027.0,284.5,1.0,2.8,330.0,0.00,4.7,11.2,"00:40:48",1
"20/11/12","01:00",0.0,5.0,93.5,1026.7,280.3,1.0,1.7,276.7,0.00,4.1,11.2,"00:58:16",1
"20/11/12","01:10",0.0,4.9,93.9,1026.7,299.0,1.7,3.1,323.3,0.00,4.0,11.2,"01:09:30",1
"20/11/12","01:20",0.0,5.1,93.7,1027.2,289.0,1.5,2.2,300.7,0.00,4.2,11.3,"01:12:24",1
"20/11/12","01:30",0.0,5.4,93.9,1026.7,315.3,2.5,4.7,327.3,0.00,4.5,11.2,"01:28:00",1
"20/11/12","01:40",0.0,5.6,93.6,1026.3,316.6,2.5,4.0,338.1,0.00,4.7,11.0,"01:36:40",1
"20/11/12","01:50",0.0,5.5,93.5,1026.5,307.2,2.1,3.1,340.4,0.00,4.6,11.1,"01:41:28",1
"20/11/12","02:00",0.0,5.4,93.6,1026.3,291.1,2.0,3.6,308.0,0.00,4.5,11.2,"01:59:44",1
"20/11/12","02:10",0.0,5.6,93.6,1026.3,298.5,2.0,4.2,297.1,0.00,4.7,11.0,"02:03:12",1
"20/11/12","02:20",0.0,5.4,93.4,1026.3,328.9,1.6,2.6,323.5,0.00,4.5,11.0,"02:16:56",1
"20/11/12","02:30",0.0,5.4,93.5,1026.3,320.5,2.6,3.7,323.4,0.00,4.5,11.1,"02:27:36",1
"20/11/12","02:40",0.0,5.6,93.4,1026.3,321.8,2.6,4.3,320.1,0.00,4.7,11.1,"02:37:44",1
"20/11/12","02:50",0.0,5.7,93.2,1026.3,322.7,2.6,5.4,336.3,0.00,4.7,11.2,"02:46:40",1
"20/11/12","03:00",0.0,5.6,93.0,1026.3,318.9,2.0,4.3,330.1,0.00,4.6,11.0,"02:51:04",1
"20/11/12","03:10",0.0,5.5,93.0,1026.0,308.2,2.0,3.5,317.7,0.00,4.5,11.1,"03:05:20",1
"20/11/12","03:20",0.0,5.5,92.9,1026.0,304.5,1.8,3.6,328.3,0.00,4.5,11.0,"03:13:12",1
"20/11/12","03:30",0.0,5.4,92.8,1026.3,320.2,1.3,2.7,330.9,0.00,4.4,10.9,"03:22:24",1
"20/11/12","03:40",0.0,4.6,92.8,1026.0,286.2,1.1,1.9,305.2,0.00,3.6,10.8,"03:36:40",1
"20/11/12","03:50",0.0,4.6,93.0,1025.6,288.6,1.6,3.3,324.0,0.00,3.6,10.9,"03:47:06",1
"20/11/12","04:00",0.0,4.8,93.0,1025.8,286.8,1.8,3.3,319.1,0.00,3.8,11.0,"03:58:00",1
"20/11/12","04:10",0.0,4.8,93.0,1025.3,299.7,1.8,3.1,302.8,0.00,3.8,11.0,"04:04:16",1
"20/11/12","04:20",0.0,5.3,93.1,1025.3,308.0,2.3,3.9,321.9,0.00,4.3,10.7,"04:18:00",1
"20/11/12","04:30",0.0,5.5,93.1,1025.1,314.2,2.8,4.3,321.4,0.00,4.5,10.9,"04:20:24",1
"20/11/12","04:40",0.0,5.7,92.9,1025.3,318.5,3.0,5.6,324.4,0.00,4.7,10.8,"04:37:12",1
"20/11/12","04:50",0.0,5.6,92.9,1025.8,308.8,2.7,4.5,339.2,0.00,4.6,10.9,"04:42:16",1
"20/11/12","05:00",0.0,5.5,92.9,1025.8,318.6,2.7,5.0,327.2,0.00,4.5,11.0,"04:51:12",1
"20/11/12","05:10",0.0,5.6,93.0,1026.0,322.0,3.1,5.1,334.3,0.00,4.6,10.7,"05:08:18",1
"20/11/12","05:20",0.0,5.7,93.0,1025.8,321.4,3.5,5.2,338.1,0.00,4.7,10.8,"05:18:32",1
"20/11/12","05:30",0.0,5.7,93.0,1026.0,319.5,3.6,5.8,333.3,0.00,4.7,10.8,"05:23:28",1
"20/11/12","05:40",0.0,5.8,92.9,1026.0,318.6,4.1,5.9,333.9,0.00,4.8,10.7,"05:32:56",1
"20/11/12","05:50",0.0,5.8,92.8,1025.8,321.3,4.1,6.5,314.8,0.00,4.8,10.7,"05:44:16",1
"20/11/12","06:00",0.0,5.7,92.8,1026.3,317.7,3.0,4.5,304.8,0.00,4.7,10.8,"05:50:24",1
"20/11/12","06:10",0.0,5.7,92.8,1026.0,319.6,3.0,4.7,323.0,0.00,4.7,10.9,"06:08:16",1
"20/11/12","06:20",0.0,5.8,92.7,1026.0,312.3,2.5,4.1,339.1,0.00,4.8,10.7,"06:10:24",1
"20/11/12","06:30",0.0,5.8,92.8,1026.5,293.1,1.8,2.8,300.6,0.00,4.8,10.8,"06:22:56",1
"20/11/12","06:40",0.0,6.0,92.8,1026.5,307.8,2.8,4.3,323.9,0.00,5.0,10.8,"06:35:04",1
"20/11/12","06:50",0.0,6.3,92.7,1026.3,315.6,2.7,4.0,322.5,0.00,5.2,10.9,"06:42:08",1
"20/11/12","07:00",0.0,6.4,92.6,1026.5,319.1,3.4,5.9,342.3,0.00,5.3,11.0,"06:57:04",1
"20/11/12","07:10",0.0,6.5,92.5,1026.3,316.8,3.0,4.5,336.9,0.00,5.4,11.0,"07:08:16",1
"20/11/12","07:20",0.0,6.6,92.4,1026.3,305.0,2.6,4.9,327.5,0.00,5.5,11.0,"07:10:08",1
"20/11/12","07:30",0.0,6.7,92.3,1026.7,313.8,2.7,4.2,325.0,0.01,5.6,10.9,"07:22:56",1
"20/11/12","07:40",0.0,6.9,92.2,1026.5,318.4,3.2,4.4,329.9,0.01,5.8,10.9,"07:34:32",1
"20/11/12","07:50",0.0,7.2,91.9,1026.7,314.5,2.8,4.3,340.0,0.03,6.0,11.2,"07:47:44",1
"20/11/12","08:00",0.0,7.4,91.5,1027.2,321.0,3.1,5.0,327.1,0.03,6.1,11.2,"07:55:36",1
"20/11/12","08:10",0.0,7.6,91.2,1027.0,314.0,3.0,4.5,330.3,0.04,6.3,11.1,"08:07:20",1
"20/11/12","08:20",0.0,8.0,90.8,1027.2,313.1,2.6,4.0,320.3,0.06,6.6,11.2,"08:10:32",1
"20/11/12","08:30",0.0,8.3,90.0,1027.2,313.2,2.5,3.7,324.1,0.07,6.8,11.3,"08:24:16",1
"20/11/12","08:40",0.0,8.8,89.3,1027.5,301.7,2.2,3.6,314.4,0.07,7.2,11.4,"08:38:40",1
"20/11/12","08:50",0.0,9.0,88.4,1027.7,303.9,2.2,3.9,324.1,0.06,7.2,11.3,"08:46:00",1
"20/11/12","09:00",0.0,9.1,87.5,1027.7,305.5,2.5,4.0,319.7,0.06,7.2,11.4,"08:56:24",1
"20/11/12","09:10",0.0,9.4,86.5,1027.7,309.8,2.3,3.1,323.8,0.06,7.3,11.7,"09:00:40",1
"20/11/12","09:20",0.0,9.7,85.6,1028.2,316.1,2.6,4.0,322.1,0.08,7.4,11.6,"09:13:12",1
"20/11/12","09:30",0.0,10.1,84.8,1027.7,311.6,2.2,3.3,323.0,0.10,7.7,11.8,"09:26:24",1
"20/11/12","09:40",0.0,10.4,83.7,1027.9,310.9,2.0,3.7,332.5,0.14,7.8,11.8,"09:33:52",1
"20/11/12","09:50",0.0,11.1,82.5,1027.5,286.7,1.5,2.7,305.4,0.27,8.3,12.0,"09:49:04",1
"20/11/12","10:00",0.0,11.7,80.0,1027.7,264.4,1.5,2.1,253.2,0.25,8.4,12.3,"09:56:32",1
"20/11/12","10:10",0.0,12.0,77.8,1027.7,268.7,1.5,2.6,234.1,0.20,8.3,12.2,"10:05:04",1
"20/11/12","10:20",0.0,12.1,75.5,1027.5,279.5,1.2,2.9,238.3,0.18,7.9,12.5,"10:16:08",1
"20/11/12","10:30",0.0,12.2,74.0,1027.2,302.6,1.3,2.1,330.3,0.12,7.7,12.5,"10:26:40",1
"20/11/12","10:40",0.0,12.5,73.8,1026.7,319.4,1.7,2.7,335.7,0.19,8.0,12.4,"10:32:00",1
"20/11/12","10:50",0.0,12.7,73.2,1026.7,284.7,1.3,2.5,261.1,0.15,8.1,12.7,"10:49:20",1
"20/11/12","11:00",0.0,12.5,72.8,1026.7,315.5,1.7,3.6,337.3,0.14,7.8,12.8,"10:58:56",1
"20/11/12","11:10",0.0,13.0,72.3,1026.3,300.4,1.6,3.7,327.3,0.21,8.2,12.8,"11:09:20",1
"20/11/12","11:20",0.0,13.1,71.0,1026.3,319.6,2.0,3.3,338.5,0.21,8.0,12.9,"11:14:08",1
"20/11/12","11:30",0.0,13.6,70.3,1026.0,300.5,1.5,3.1,336.2,0.18,8.3,13.1,"11:20:24",1
"20/11/12","11:40",0.0,13.9,68.9,1025.6,290.5,1.5,2.6,333.9,0.19,8.3,13.2,"11:34:00",1
"20/11/12","11:50",0.0,15.0,67.3,1025.3,278.9,1.3,2.1,311.8,0.33,9.0,13.3,"11:42:24",1
"20/11/12","12:00",0.0,15.3,65.7,1025.1,261.3,0.7,1.7,335.1,0.21,9.0,13.7,"11:50:56",1
"20/11/12","12:10",0.0,15.5,64.1,1025.1,242.3,0.6,1.6,237.9,0.20,8.8,13.7,"12:04:16",1
"20/11/12","12:20",0.0,15.9,63.9,1025.1,255.4,0.6,1.6,246.1,0.22,9.1,13.6,"12:14:40",1
"20/11/12","12:30",0.0,17.1,61.7,1024.6,262.7,0.8,1.8,227.9,0.43,9.7,14.0,"12:22:48",1
"20/11/12","12:40",0.0,17.4,59.1,1024.9,252.2,0.6,1.6,240.4,0.31,9.4,14.2,"12:36:08",1
"20/11/12","12:50",0.0,17.4,59.3,1024.4,268.0,1.1,1.8,318.1,0.24,9.4,14.3,"12:46:56",1
"20/11/12","13:00",0.0,17.4,57.2,1024.1,257.6,1.1,2.1,318.2,0.32,8.9,14.5,"12:56:40",1
"20/11/12","13:10",0.0,18.3,53.8,1023.7,234.3,0.8,1.8,323.9,0.46,8.8,14.8,"13:02:08",1
"20/11/12","13:20",0.0,18.5,53.0,1023.4,288.7,1.1,3.1,344.6,0.38,8.8,14.8,"13:15:20",1
"20/11/12","13:30",0.0,19.0,52.9,1023.2,267.5,0.6,1.2,193.4,0.36,9.2,14.7,"13:29:44",1
"20/11/12","13:40",0.0,19.0,53.8,1023.0,217.0,1.0,2.5,209.9,0.35,9.5,15.0,"13:30:48",1
"20/11/12","13:50",0.0,18.8,53.9,1023.0,163.0,1.0,2.2,95.9,0.33,9.3,15.2,"13:42:08",1
"20/11/12","14:00",0.0,18.9,52.9,1022.7,105.6,0.7,2.0,213.6,0.31,9.1,15.3,"13:50:08",1
"20/11/12","14:10",0.0,19.0,54.4,1022.7,105.0,0.7,2.0,132.4,0.29,9.6,15.6,"14:04:16",1
"20/11/12","14:20",0.0,19.0,53.0,1022.7,77.7,1.1,2.7,110.1,0.27,9.3,15.7,"14:18:24",1
"20/11/12","14:30",0.0,18.9,54.8,1022.7,78.0,1.0,2.5,127.0,0.25,9.7,15.7,"14:20:24",1
"20/11/12","14:40",0.0,19.0,54.5,1022.5,63.3,0.8,2.7,341.5,0.23,9.7,15.6,"14:35:20",1
"20/11/12","14:50",0.0,19.0,55.0,1022.5,235.0,0.7,2.6,121.5,0.20,9.8,15.7,"14:48:48",1
"20/11/12","15:00",0.0,18.8,55.6,1022.7,188.6,0.7,2.6,208.1,0.18,9.8,15.8,"14:56:24",1
"20/11/12","15:10",0.0,18.7,56.3,1022.5,102.9,0.7,1.9,64.1,0.16,9.9,15.8,"15:07:04",1
"20/11/12","15:20",0.0,18.3,56.1,1022.5,141.7,0.8,2.6,115.7,0.13,9.4,15.7,"15:16:24",1
"20/11/12","15:30",0.0,18.0,58.0,1022.5,154.1,0.7,1.9,179.4,0.11,9.7,15.7,"15:24:08",1
"20/11/12","15:40",0.0,17.9,58.2,1022.5,101.6,0.7,2.5,104.9,0.09,9.6,15.5,"15:38:00",1
"20/11/12","15:50",0.0,17.9,58.5,1022.3,139.6,0.6,1.9,85.7,0.07,9.7,15.7,"15:48:24",1
"20/11/12","16:00",0.0,17.6,59.6,1022.5,184.1,0.6,1.2,120.3,0.05,9.7,15.6,"15:52:24",1
"20/11/12","16:10",0.0,17.2,60.4,1022.7,155.1,0.8,2.1,177.2,0.03,9.5,15.4,"16:04:00",1
"20/11/12","16:20",0.0,17.0,61.6,1022.7,157.3,0.7,1.6,116.2,0.01,9.6,15.5,"16:13:12",1
"20/11/12","16:30",0.0,16.4,62.7,1022.7,153.8,0.6,1.8,113.8,0.00,9.3,15.6,"16:22:56",1
"20/11/12","16:40",0.0,16.0,63.9,1022.7,204.1,0.5,1.1,190.9,0.00,9.2,15.4,"16:30:16",1
"20/11/12","16:50",0.0,15.7,64.9,1023.0,318.5,0.7,1.4,314.6,0.00,9.2,15.2,"16:49:52",1
"20/11/12","17:00",0.0,14.9,66.4,1023.0,295.7,0.8,1.4,309.7,0.00,8.7,15.0,"16:50:08",1
"20/11/12","17:10",0.0,14.2,68.2,1022.7,286.3,0.8,1.3,316.8,0.00,8.5,15.1,"17:09:56",1
"20/11/12","17:20",0.0,13.6,70.2,1022.7,287.7,1.0,1.2,299.3,0.00,8.3,14.8,"17:10:48",1
"20/11/12","17:30",0.0,13.0,71.6,1022.5,301.6,1.1,1.8,332.0,0.00,8.0,14.4,"17:21:14",1
"20/11/12","17:40",0.0,12.3,72.8,1023.0,293.6,0.7,1.4,309.7,0.00,7.6,14.5,"17:39:10",1
"20/11/12","17:50",0.0,11.9,74.0,1023.0,309.3,1.3,1.8,323.2,0.00,7.5,14.2,"17:44:12",1
"20/11/12","18:00",0.0,11.2,75.4,1023.2,310.1,1.1,1.6,310.3,0.00,7.1,14.2,"17:55:34",1
"20/11/12","18:10",0.0,11.0,77.0,1023.2,315.6,1.2,1.7,321.6,0.00,7.2,14.3,"18:09:10",1
"20/11/12","18:20",0.0,10.6,79.0,1023.2,303.2,1.3,1.9,321.2,0.00,7.2,13.9,"18:11:04",1
"20/11/12","18:30",0.0,10.2,81.0,1023.0,314.8,1.3,1.9,317.6,0.00,7.1,13.9,"18:23:52",1
"20/11/12","18:40",0.0,10.1,82.7,1023.2,319.3,1.6,1.9,310.7,0.00,7.3,13.9,"18:31:20",1
"20/11/12","18:50",0.0,9.8,83.9,1023.4,295.4,1.2,1.8,319.3,0.00,7.3,13.9,"18:41:44",1
"20/11/12","19:00",0.0,10.2,85.1,1023.2,303.2,1.3,1.9,312.5,0.00,7.9,13.5,"18:53:04",1
"20/11/12","19:10",0.0,10.3,85.9,1023.4,291.9,1.3,1.8,278.8,0.00,8.1,13.7,"19:09:36",1
"20/11/12","19:20",0.0,10.2,86.5,1023.4,301.2,1.2,2.1,299.1,0.00,8.1,13.6,"19:18:24",1
"20/11/12","19:30",0.0,9.9,87.0,1023.4,311.6,1.2,1.6,331.9,0.00,7.9,13.3,"19:20:08",1
"20/11/12","19:40",0.0,9.5,87.5,1023.0,300.8,1.6,1.9,310.0,0.00,7.6,13.3,"19:37:28",1
"20/11/12","19:50",0.0,9.4,88.3,1023.0,301.1,1.6,2.2,314.6,0.00,7.6,13.4,"19:46:40",1
"20/11/12","20:00",0.0,9.5,88.7,1023.4,294.7,1.3,1.7,322.4,0.00,7.8,13.1,"19:56:08",1
"20/11/12","20:10",0.0,9.3,89.0,1023.4,304.8,1.2,2.1,308.4,0.00,7.6,13.1,"20:09:28",1
"20/11/12","20:20",0.0,9.0,89.5,1023.7,303.1,1.7,2.1,310.2,0.00,7.4,13.1,"20:19:44",1
"20/11/12","20:30",0.0,8.9,89.8,1023.2,307.1,1.3,2.0,311.6,0.00,7.4,12.9,"20:20:08",1
"20/11/12","20:40",0.0,8.7,90.2,1023.4,304.7,1.6,2.4,317.8,0.00,7.2,13.0,"20:38:16",1
"20/11/12","20:50",0.0,8.7,90.6,1023.2,303.7,1.2,2.1,312.7,0.00,7.3,13.2,"20:44:48",1
"20/11/12","21:00",0.0,8.5,90.8,1023.7,300.7,1.2,2.0,317.6,0.00,7.1,12.9,"20:53:52",1
"20/11/12","21:10",0.0,8.4,91.1,1023.4,295.6,1.3,2.2,312.5,0.00,7.1,12.8,"21:01:28",1
"20/11/12","21:20",0.0,8.4,91.5,1023.0,310.2,1.7,2.2,321.5,0.00,7.1,12.6,"21:13:52",1
"20/11/12","21:30",0.0,8.2,91.6,1023.2,298.6,1.5,2.1,317.7,0.00,7.0,12.7,"21:20:24",1
"20/11/12","21:40",0.0,8.2,92.0,1023.2,295.4,1.6,2.4,319.6,0.00,7.0,12.4,"21:32:00",1
"20/11/12","21:50",0.0,8.8,92.0,1023.2,302.4,1.3,2.2,321.6,0.00,7.6,12.4,"21:40:56",1
"20/11/12","22:00",0.0,9.1,92.4,1023.2,310.5,1.5,1.9,294.1,0.00,8.0,12.6,"21:52:32",1
"20/11/12","22:10",0.0,9.1,92.3,1023.2,312.5,1.6,2.2,326.4,0.00,8.0,12.3,"22:01:36",1
"20/11/12","22:20",0.0,8.6,92.6,1023.0,295.3,1.2,1.8,316.0,0.00,7.5,12.3,"22:17:44",1
"20/11/12","22:30",0.0,8.4,93.0,1023.0,311.4,1.1,1.9,316.2,0.00,7.4,12.6,"22:20:24",1
"20/11/12","22:40",0.0,8.4,93.2,1023.0,309.0,1.5,2.2,325.8,0.00,7.4,12.5,"22:34:40",1
"20/11/12","22:50",0.0,8.2,93.4,1023.0,304.9,1.7,2.1,319.3,0.00,7.2,12.2,"22:42:16",1
"20/11/12","23:00",0.0,8.2,93.6,1023.0,305.0,1.3,2.4,326.3,0.00,7.3,12.4,"22:57:52",1
"20/11/12","23:10",0.0,8.3,93.6,1022.5,305.2,1.1,2.1,316.1,0.00,7.4,12.2,"23:04:48",1
"20/11/12","23:20",0.0,8.2,93.9,1022.7,295.4,1.1,2.1,306.8,0.00,7.3,12.2,"23:14:32",1
"20/11/12","23:30",0.0,8.8,94.2,1022.5,293.2,1.3,2.0,309.4,0.00,8.0,12.2,"23:22:24",1
"20/11/12","23:40",0.0,9.0,93.9,1022.7,323.9,1.1,2.2,308.3,0.00,8.1,12.0,"23:31:04",1
"20/11/12","23:50",0.0,8.5,94.2,1022.5,313.3,1.8,2.2,322.0,0.00,7.7,12.0,"23:41:28",1
"20/11/12","24:00",0.0,8.1,94.5,1022.5,299.6,1.0,1.4,313.0,0.00,7.3,12.2,"23:55:20",1
